Previsão horária em Jurczyce

Hoje, 24 Junho, Quinta-feira

Tempo Temperatura Precipitação Vento Pressão Humidade
00:00 +19°C° 0 mm 1 m/s 752 mmHg 93%
01:00 +19°C° 0 mm 1 m/s 751 mmHg 94%
02:00 +19°C° 0.9 mm 1 m/s 751 mmHg 95%
03:00 +19°C° 0.9 mm 1 m/s 751 mmHg 96%
04:00 +19°C° 0.9 mm 1 m/s 750 mmHg 97%
05:00 +20°C° 1.5 mm 1 m/s 750 mmHg 96%
06:00 +20°C° 1.5 mm 1 m/s 750 mmHg 96%
07:00 +20°C° 1.5 mm 1 m/s 749 mmHg 96%
08:00 +20°C° 0.3 mm 2 m/s 749 mmHg 94%
09:00 +21°C° 0.3 mm 2 m/s 749 mmHg 92%
10:00 +23°C° 0.3 mm 2 m/s 749 mmHg 90%
11:00 +24°C° 0 mm 2 m/s 749 mmHg 82%
12:00 +26°C° 0 mm 3 m/s 749 mmHg 74%
13:00 +27°C° 0 mm 3 m/s 749 mmHg 66%
14:00 +26°C° 0 mm 4 m/s 749 mmHg 70%
15:00 +23°C° 0 mm 6 m/s 749 mmHg 74%
16:00 +21°C° 0 mm 7 m/s 749 mmHg 79%
17:00 +20°C° 0 mm 6 m/s 749 mmHg 82%
18:00 +17°C° 0 mm 6 m/s 749 mmHg 85%
19:00 +15°C° 0 mm 6 m/s 749 mmHg 88%
20:00 +15°C° 0 mm 5 m/s 750 mmHg 89%
21:00 +15°C° 0 mm 4 m/s 750 mmHg 89%
22:00 +16°C° 0 mm 3 m/s 750 mmHg 89%
23:00 +16°C° 0.1 mm 3 m/s 750 mmHg 90%

Amanhã, 25 Junho, Sexta-feira

Tempo Temperatura Precipitação Vento Pressão Humidade
00:00 +16°C° 0.1 mm 3 m/s 750 mmHg 90%
01:00 +14°C° 0.1 mm 3 m/s 749 mmHg 90%
02:00 +14°C° 0 mm 3 m/s 750 mmHg 91%
03:00 +14°C° 0 mm 3 m/s 750 mmHg 91%
04:00 +14°C° 0 mm 3 m/s 750 mmHg 91%
05:00 +14°C° 0 mm 3 m/s 750 mmHg 91%
06:00 +16°C° 0 mm 3 m/s 750 mmHg 92%
07:00 +16°C° 0 mm 3 m/s 751 mmHg 92%
08:00 +16°C° 0.1 mm 3 m/s 751 mmHg 90%
09:00 +17°C° 0.1 mm 3 m/s 751 mmHg 89%
10:00 +17°C° 0.1 mm 3 m/s 751 mmHg 87%
11:00 +18°C° 0.1 mm 3 m/s 751 mmHg 81%
12:00 +20°C° 0.1 mm 3 m/s 751 mmHg 75%
13:00 +21°C° 0.1 mm 2 m/s 751 mmHg 69%
14:00 +21°C° 0.3 mm 2 m/s 751 mmHg 71%
15:00 +21°C° 0.3 mm 2 m/s 751 mmHg 73%
16:00 +20°C° 0.3 mm 2 m/s 751 mmHg 75%
17:00 +20°C° 0 mm 2 m/s 751 mmHg 78%
18:00 +21°C° 0 mm 1 m/s 750 mmHg 81%
19:00 +20°C° 0 mm 1 m/s 750 mmHg 84%
20:00 +19°C° 0 mm 1 m/s 751 mmHg 85%
21:00 +18°C° 0 mm 1 m/s 751 mmHg 87%
22:00 +15°C° 0 mm 0 m/s 752 mmHg 89%
23:00 +16°C° 0 mm 1 m/s 752 mmHg 90%

Depois de amanhã, 26 Junho, Sábado

Tempo Temperatura Precipitação Vento Pressão Humidade
00:00 +15°C° 0 mm 1 m/s 752 mmHg 90%
01:00 +15°C° 0 mm 1 m/s 752 mmHg 91%
02:00 +15°C° 0 mm 1 m/s 752 mmHg 91%
03:00 +15°C° 0 mm 1 m/s 752 mmHg 91%
04:00 +14°C° 0 mm 1 m/s 751 mmHg 91%
05:00 +16°C° 0 mm 1 m/s 752 mmHg 87%
06:00 +17°C° 0 mm 0 m/s 752 mmHg 82%
07:00 +18°C° 0 mm 0 m/s 752 mmHg 77%
08:00 +22°C° 0 mm 1 m/s 752 mmHg 72%
09:00 +23°C° 0 mm 1 m/s 752 mmHg 66%
10:00 +24°C° 0 mm 1 m/s 752 mmHg 61%
11:00 +25°C° 0.2 mm 1 m/s 752 mmHg 59%
12:00 +25°C° 0.2 mm 1 m/s 752 mmHg 57%
13:00 +25°C° 0.2 mm 1 m/s 752 mmHg 55%
14:00 +25°C° 0.1 mm 1 m/s 751 mmHg 56%
15:00 +25°C° 0.1 mm 1 m/s 751 mmHg 58%
16:00 +25°C° 0.1 mm 1 m/s 751 mmHg 59%
17:00 +24°C° 0.1 mm 1 m/s 751 mmHg 63%
18:00 +24°C° 0.1 mm 1 m/s 751 mmHg 67%
19:00 +23°C° 0.1 mm 1 m/s 751 mmHg 72%
20:00 +21°C° 0 mm 1 m/s 751 mmHg 75%
21:00 +20°C° 0 mm 1 m/s 751 mmHg 78%
22:00 +19°C° 0 mm 1 m/s 752 mmHg 82%
23:00 +18°C° 0 mm 1 m/s 751 mmHg 83%

27 Junho, Domingo

Tempo Temperatura Precipitação Vento Pressão Humidade
00:00 +18°C° 0 mm 1 m/s 751 mmHg 84%
01:00 +15°C° 0 mm 0 m/s 751 mmHg 85%
02:00 +16°C° 0 mm 1 m/s 751 mmHg 86%
03:00 +16°C° 0 mm 1 m/s 751 mmHg 87%
04:00 +16°C° 0 mm 1 m/s 751 mmHg 87%
05:00 +18°C° 0 mm 1 m/s 751 mmHg 83%
06:00 +20°C° 0 mm 1 m/s 751 mmHg 78%
07:00 +21°C° 0 mm 1 m/s 752 mmHg 74%
08:00 +23°C° 0 mm 2 m/s 751 mmHg 68%
09:00 +24°C° 0 mm 2 m/s 751 mmHg 63%
10:00 +26°C° 0 mm 3 m/s 751 mmHg 58%
11:00 +26°C° 0 mm 3 m/s 751 mmHg 55%
12:00 +27°C° 0 mm 3 m/s 751 mmHg 53%
13:00 +28°C° 0 mm 3 m/s 751 mmHg 50%
14:00 +28°C° 0 mm 3 m/s 751 mmHg 49%
15:00 +28°C° 0 mm 3 m/s 751 mmHg 49%
16:00 +28°C° 0 mm 2 m/s 750 mmHg 49%
17:00 +27°C° 0 mm 2 m/s 750 mmHg 55%
18:00 +26°C° 0 mm 2 m/s 750 mmHg 62%
19:00 +25°C° 0 mm 2 m/s 750 mmHg 68%
20:00 +24°C° 0 mm 2 m/s 750 mmHg 70%
21:00 +21°C° 0 mm 2 m/s 750 mmHg 73%
22:00 +20°C° 0 mm 2 m/s 750 mmHg 76%
23:00 +19°C° 0 mm 2 m/s 750 mmHg 78%

28 Junho, Segunda-feira

Tempo Temperatura Precipitação Vento Pressão Humidade
00:00 +18°C° 0 mm 2 m/s 750 mmHg 80%
01:00 +18°C° 0 mm 2 m/s 750 mmHg 82%
02:00 +18°C° 0 mm 2 m/s 750 mmHg 82%
03:00 +18°C° 0 mm 2 m/s 750 mmHg 82%
04:00 +18°C° 0 mm 2 m/s 750 mmHg 81%
05:00 +19°C° 0 mm 2 m/s 750 mmHg 77%
06:00 +21°C° 0 mm 2 m/s 750 mmHg 73%
07:00 +22°C° 0 mm 3 m/s 750 mmHg 68%
08:00 +25°C° 0 mm 3 m/s 750 mmHg 64%
09:00 +26°C° 0 mm 3 m/s 750 mmHg 60%
10:00 +28°C° 0 mm 3 m/s 750 mmHg 56%
11:00 +29°C° 0 mm 3 m/s 750 mmHg 53%
12:00 +30°C° 0 mm 3 m/s 750 mmHg 50%
13:00 +31°C° 0 mm 2 m/s 749 mmHg 47%
14:00 +31°C° 0 mm 2 m/s 749 mmHg 47%
15:00 +31°C° 0 mm 2 m/s 749 mmHg 47%
16:00 +32°C° 0 mm 2 m/s 749 mmHg 47%
17:00 +31°C° 0 mm 2 m/s 749 mmHg 53%
18:00 +29°C° 0 mm 2 m/s 748 mmHg 59%
19:00 +28°C° 0 mm 2 m/s 748 mmHg 66%
20:00 +27°C° 0 mm 2 m/s 748 mmHg 68%
21:00 +25°C° 0 mm 2 m/s 748 mmHg 70%
22:00 +24°C° 0 mm 2 m/s 748 mmHg 72%
23:00 +23°C° 0 mm 2 m/s 748 mmHg 74%

29 Junho, Terça-feira

Tempo Temperatura Precipitação Vento Pressão Humidade
00:00 +23°C° 0 mm 2 m/s 748 mmHg 77%
01:00 +22°C° 0 mm 1 m/s 748 mmHg 79%
02:00 +21°C° 0 mm 2 m/s 748 mmHg 78%
03:00 +21°C° 0 mm 2 m/s 748 mmHg 76%
04:00 +23°C° 0 mm 2 m/s 748 mmHg 75%
05:00 +23°C° 0 mm 1 m/s 748 mmHg 74%
06:00 +24°C° 0 mm 1 m/s 748 mmHg 74%
07:00 +25°C° 0 mm 1 m/s 748 mmHg 73%
08:00 +26°C° 0 mm 1 m/s 748 mmHg 67%
09:00 +28°C° 0 mm 1 m/s 748 mmHg 61%
10:00 +30°C° 0 mm 2 m/s 748 mmHg 55%
11:00 +31°C° 0 mm 2 m/s 748 mmHg 52%
12:00 +32°C° 0 mm 2 m/s 748 mmHg 49%
13:00 +34°C° 0 mm 2 m/s 748 mmHg 45%
14:00 +34°C° 0 mm 2 m/s 748 mmHg 46%
15:00 +34°C° 0 mm 2 m/s 748 mmHg 47%
16:00 +34°C° 0 mm 2 m/s 748 mmHg 47%
17:00 +31°C° 0 mm 2 m/s 748 mmHg 54%
18:00 +30°C° 0 mm 2 m/s 748 mmHg 62%
19:00 +28°C° 0 mm 2 m/s 748 mmHg 69%
20:00 +27°C° 0.3 mm 2 m/s 748 mmHg 76%
21:00 +25°C° 0.3 mm 2 m/s 748 mmHg 83%
22:00 +23°C° 0.3 mm 2 m/s 748 mmHg 90%
23:00 +21°C° 0.1 mm 2 m/s 748 mmHg 92%
Mostrar mais

Necessitamos do seu Consentimento

A Meteoprog e os seus Fornecedores de Serviços podem armazenar e aceder a dados pessoais como cookies, identificadores do dispositivo ou outras tecnologias semelhantes existentes no seu dispositivo e processar estes dados para personalizar conteúdos e anúncios, assim como funcionalidades nas redes sociais e análise de tráfego.

  • Armazenar e/ou aceder a informações no seu dispositivo

    Os cookies, identificadores do dispositivo ou outras informações podem ser armazenados ou acedidos no seu dispositivo, para os fins acima indicados.

  • Anúncios e conteúdos personalizados, medição de anúncios e conteúdos, dados sobre o público-alvo e desenvolvimento de produtos

    Os anúncios e os conteúdos podem ser personalizados com base num perfil. Podem ser adicionados dados adicionais para uma maior personalização dos anúncios e dos conteúdos. A eficácia dos anúncios e dos conteúdos pode ser medida. Podem ser obtidas informações sobre o público que visualizou os anúncios e os conteúdos. Estes dados podem ser usados para desenvolver ou melhorar sistemas, softwares ou a experiência do utilizador.

Ao clicar em "Eu concordo”, permitirá o uso de cookies, identificadores do dispositivo e web beacons mencionados ou outras tecnologias semelhantes. As configurações do navegador do seu dispositivo podem ser alteradas.

Para certos fins, podem ser invocados interesses legítimos ao invés de consentimento. Pode ler mais informação sobre este assunto na nossa Política de Privacidade e Cookies.